SP6PGH-13 Weather Reports


time (UTC)temp
C
wind
direction
speed
KPH
gust
KPH
rain 1hr
cm
rain 24hr
cm
rain mn
cm
humidity
%
barometer
mb
20260502190032 16 104 0.0 0.0 0.00 0.00 0.00 45 1005.0
20260502184531 17 103 0.0 0.0 0.00 0.00 0.00 40 1005.0
20260502183030 18 104 0.0 0.0 0.00 0.00 0.00 37 1004.8
20260502181529 20 114 0.0 0.0 0.00 0.00 0.00 34 1004.7
20260502163022 23 187 3.2 6.4 0.00 0.00 0.00 28 1005.4
20260502161521 25 42 1.6 6.4 0.00 0.00 0.00 28 1005.6
20260502151517 25 12 1.6 4.8 0.00 0.00 0.00 27 1006.2
20260502123007 24 300 3.2 12.9 0.00 0.00 0.00 28 1008.3
20260502121507 23 102 3.2 8.0 0.00 0.00 0.00 28 1008.5
20260502114504 23 228 1.6 6.4 0.00 0.00 0.00 28 1008.8
20260502113004 23 318 3.2 6.4 0.00 0.00 0.00 28 1009.0
20260502111503 23 47 3.2 8.0 0.00 0.00 0.00 29 1009.2
20260502110001 22 312 3.2 8.0 0.00 0.00 0.00 30 1009.3
20260502104500 23 198 1.6 6.4 0.00 0.00 0.00 28 1009.6
20260502102959 23 204 1.6 6.4 0.00 0.00 0.00 29 1009.7
20260502101458 23 192 3.2 6.4 0.00 0.00 0.00 29 1009.9
20260502091454 22 309 3.2 9.7 0.00 0.00 0.00 33 1010.6
20260502071447 18 120 1.6 3.2 0.00 0.00 0.00 47 1011.0
20260502065946 17 147 1.6 4.8 0.00 0.00 0.00 51 1011.0
20260502064444 16 134 0.0 3.2 0.00 0.00 0.00 54 1011.0
20260502062944 13 144 0.0 3.2 0.00 0.00 0.00 60 1011.1
20260502061443 12 139 0.0 3.2 0.00 0.00 0.00 65 1011.2
20260502055942 11 138 0.0 3.2 0.00 0.00 0.00 68 1011.1
20260502054441 10 144 0.0 3.2 0.00 0.00 0.00 72 1011.1
20260502052940 8 156 0.0 0.0 0.00 0.00 0.00 76 1011.2
20260502051439 8 96 0.0 3.2 0.00 0.00 0.00 76 1011.1
20260502045938 7 108 0.0 4.8 0.00 0.00 0.00 77 1010.9
20260502044437 6 71 0.0 0.0 0.00 0.00 0.00 80 1010.9
20260502042936 6 114 0.0 0.0 0.00 0.00 0.00 83 1011.0
20260502041435 4 96 0.0 0.0 0.00 0.00 0.00 91 1011.0
20260502035934 3 306 0.0 0.0 0.00 0.00 0.00 91 1011.0
20260502034433 3 252 0.0 0.0 0.00 0.00 0.00 90 1011.0
20260502032932 3 120 0.0 0.0 0.00 0.00 0.00 90 1010.9
20260502031431 3 120 0.0 0.0 0.00 0.00 0.00 90 1010.9
20260502025930 4 120 0.0 0.0 0.00 0.00 0.00 86 1010.9
20260502024429 5 102 0.0 0.0 0.00 0.00 0.00 84 1011.0
20260502022928 4 330 0.0 0.0 0.00 0.00 0.00 87 1011.0
20260502021427 5 96 0.0 0.0 0.00 0.00 0.00 83 1010.8
20260502015926 6 102 0.0 0.0 0.00 0.00 0.00 84 1010.9
20260502014425 5 102 0.0 0.0 0.00 0.00 0.00 87 1011.0
20260502012924 5 102 0.0 0.0 0.00 0.00 0.00 88 1010.9
20260502011424 6 102 0.0 0.0 0.00 0.00 0.00 86 1010.9
20260502005923 6 96 0.0 0.0 0.00 0.00 0.00 87 1011.0
20260502004422 5 96 0.0 0.0 0.00 0.00 0.00 88 1011.1
20260502002921 6 96 0.0 0.0 0.00 0.00 0.00 85 1011.1
20260502001420 6 96 0.0 0.0 0.00 0.00 0.00 83 1011.2
20260501235919 6 96 0.0 0.0 0.00 0.00 0.00 85 1011.1
20260501234418 6 258 0.0 0.0 0.00 0.00 0.00 85 1011.1
20260501232917 6 84 0.0 0.0 0.00 0.00 0.00 85 1011.1
20260501231416 6 114 0.0 0.0 0.00 0.00 0.00 83 1011.2
20260501225915 7 114 0.0 0.0 0.00 0.00 0.00 82 1011.3
20260501224414 8 114 0.0 0.0 0.00 0.00 0.00 79 1011.3
20260501222913 9 102 0.0 0.0 0.00 0.00 0.00 74 1011.3
20260501221412 9 90 0.0 0.0 0.00 0.00 0.00 74 1011.5
20260501215912 8 90 0.0 0.0 0.00 0.00 0.00 75 1011.4
20260501212909 8 264 0.0 0.0 0.00 0.00 0.00 77 1011.4
20260501211408 8 264 0.0 0.0 0.00 0.00 0.00 75 1011.4
20260501205907 9 264 0.0 0.0 0.00 0.00 0.00 75 1011.2
20260501204406 9 264 0.0 0.0 0.00 0.00 0.00 73 1011.4
20260501202906 10 264 0.0 0.0 0.00 0.00 0.00 72 1011.3
20260501201404 10 264 0.0 0.0 0.00 0.00 0.00 70 1011.3
20260501195903 11 264 0.0 0.0 0.00 0.00 0.00 66 1011.3
20260501194403 11 264 0.0 0.0 0.00 0.00 0.00 64 1011.2
20260501192901 12 264 0.0 0.0 0.00 0.00 0.00 63 1011.4
20260501191401 12 264 0.0 0.0 0.00 0.00 0.00 60 1011.3